When you browse on this site, cookies collect data to enhance your experience and personalize the content and advertising you see.
Visit our Privacy Policy to learn more. By continuing to use the site, you agree to this use of cookies and data.

Stündliche Wetter Gorevichi

Heute, 14 Juli, Dienstag

Zeit Temperatur Niederschläge Wind Luftdruck Luftfeuchtigkeit
00:00 +10°C° 0 mm 2 m/S 745 mmHg 94%
01:00 +9°C° 0 mm 2 m/S 745 mmHg 95%
02:00 +9°C° 0 mm 2 m/S 745 mmHg 96%
03:00 +9°C° 0 mm 2 m/S 745 mmHg 97%
04:00 +9°C° 0 mm 2 m/S 745 mmHg 97%
05:00 +9°C° 0 mm 2 m/S 745 mmHg 97%
06:00 +12°C° 0 mm 2 m/S 745 mmHg 93%
07:00 +12°C° 0 mm 3 m/S 745 mmHg 88%
08:00 +14°C° 0 mm 3 m/S 745 mmHg 83%
09:00 +16°C° 0 mm 3 m/S 745 mmHg 78%
10:00 +17°C° 0 mm 3 m/S 745 mmHg 72%
11:00 +19°C° 0 mm 3 m/S 745 mmHg 67%
12:00 +19°C° 0.2 mm 3 m/S 745 mmHg 67%
13:00 +19°C° 0.2 mm 3 m/S 744 mmHg 67%
14:00 +19°C° 0 mm 4 m/S 744 mmHg 70%
15:00 +19°C° 0.2 mm 4 m/S 744 mmHg 71%
16:00 +19°C° 0.2 mm 4 m/S 743 mmHg 73%
17:00 +18°C° 0.2 mm 4 m/S 743 mmHg 75%
18:00 +17°C° 0.1 mm 4 m/S 743 mmHg 79%
19:00 +16°C° 0.1 mm 3 m/S 743 mmHg 84%
20:00 +14°C° 0.1 mm 3 m/S 742 mmHg 88%
21:00 +13°C° 0 mm 3 m/S 742 mmHg 90%
22:00 +12°C° 0 mm 3 m/S 743 mmHg 92%
23:00 +11°C° 0 mm 3 m/S 743 mmHg 94%

Morgen, 15 Juli, Mittwoch

Zeit Temperatur Niederschläge Wind Luftdruck Luftfeuchtigkeit
00:00 +11°C° 0 mm 3 m/S 742 mmHg 95%
01:00 +10°C° 0 mm 3 m/S 742 mmHg 95%
02:00 +10°C° 0 mm 3 m/S 742 mmHg 96%
03:00 +10°C° 0 mm 3 m/S 742 mmHg 96%
04:00 +10°C° 0 mm 3 m/S 742 mmHg 96%
05:00 +10°C° 0 mm 2 m/S 742 mmHg 97%
06:00 +12°C° 0 mm 3 m/S 742 mmHg 93%
07:00 +13°C° 0 mm 3 m/S 742 mmHg 89%
08:00 +16°C° 0 mm 3 m/S 742 mmHg 85%
09:00 +17°C° 0 mm 3 m/S 742 mmHg 78%
10:00 +18°C° 0 mm 3 m/S 742 mmHg 71%
11:00 +20°C° 0 mm 3 m/S 742 mmHg 64%
12:00 +20°C° 0 mm 4 m/S 742 mmHg 63%
13:00 +21°C° 0 mm 4 m/S 742 mmHg 61%
14:00 +21°C° 0 mm 4 m/S 742 mmHg 60%
15:00 +21°C° 0 mm 3 m/S 742 mmHg 61%
16:00 +21°C° 0 mm 3 m/S 742 mmHg 62%
17:00 +21°C° 0 mm 2 m/S 742 mmHg 62%
18:00 +19°C° 0 mm 2 m/S 742 mmHg 67%
19:00 +19°C° 0 mm 1 m/S 742 mmHg 72%
20:00 +16°C° 0 mm 1 m/S 742 mmHg 76%
21:00 +15°C° 0 mm 1 m/S 742 mmHg 78%
22:00 +13°C° 0 mm 0 m/S 742 mmHg 80%
23:00 +12°C° 0 mm 0 m/S 742 mmHg 82%

übermorgen, 16 Juli, Donnerstag

Zeit Temperatur Niederschläge Wind Luftdruck Luftfeuchtigkeit
00:00 +12°C° 0 mm 0 m/S 742 mmHg 83%
01:00 +11°C° 0 mm 0 m/S 742 mmHg 84%
02:00 +12°C° 0 mm 1 m/S 742 mmHg 85%
03:00 +12°C° 0 mm 1 m/S 742 mmHg 86%
04:00 +11°C° 0 mm 0 m/S 742 mmHg 87%
05:00 +11°C° 0 mm 0 m/S 741 mmHg 88%
06:00 +13°C° 0 mm 0 m/S 742 mmHg 83%
07:00 +15°C° 0 mm 0 m/S 742 mmHg 78%
08:00 +17°C° 0 mm 0 m/S 742 mmHg 73%
09:00 +19°C° 0 mm 0 m/S 742 mmHg 69%
10:00 +22°C° 0 mm 1 m/S 741 mmHg 65%
11:00 +24°C° 0 mm 1 m/S 741 mmHg 61%
12:00 +24°C° 0.2 mm 1 m/S 741 mmHg 60%
13:00 +24°C° 0.2 mm 1 m/S 741 mmHg 60%
14:00 +24°C° 0.2 mm 1 m/S 741 mmHg 60%
15:00 +24°C° 0.7 mm 1 m/S 741 mmHg 62%
16:00 +24°C° 0.7 mm 1 m/S 740 mmHg 65%
17:00 +24°C° 0.7 mm 1 m/S 740 mmHg 68%
18:00 +22°C° 0.3 mm 1 m/S 740 mmHg 73%
19:00 +21°C° 0.3 mm 1 m/S 740 mmHg 78%
20:00 +19°C° 0.3 mm 1 m/S 740 mmHg 83%
21:00 +18°C° 0 mm 1 m/S 740 mmHg 85%
22:00 +17°C° 0 mm 2 m/S 741 mmHg 86%
23:00 +16°C° 0 mm 2 m/S 741 mmHg 88%

17 Juli, Freitag

Zeit Temperatur Niederschläge Wind Luftdruck Luftfeuchtigkeit
00:00 +15°C° 0.2 mm 2 m/S 741 mmHg 89%
01:00 +15°C° 0.2 mm 2 m/S 741 mmHg 90%
02:00 +14°C° 0.2 mm 2 m/S 741 mmHg 91%
03:00 +14°C° 0.2 mm 1 m/S 741 mmHg 92%
04:00 +14°C° 0.2 mm 1 m/S 741 mmHg 92%
05:00 +14°C° 0.2 mm 1 m/S 741 mmHg 92%
06:00 +15°C° 0.1 mm 1 m/S 741 mmHg 90%
07:00 +16°C° 0.1 mm 1 m/S 741 mmHg 88%
08:00 +18°C° 0.1 mm 1 m/S 742 mmHg 85%
09:00 +19°C° 0.1 mm 1 m/S 742 mmHg 83%
10:00 +20°C° 0.1 mm 1 m/S 742 mmHg 81%
11:00 +21°C° 0.1 mm 1 m/S 742 mmHg 79%
12:00 +22°C° 0.6 mm 1 m/S 742 mmHg 79%
13:00 +22°C° 0.6 mm 1 m/S 742 mmHg 79%
14:00 +23°C° 0.6 mm 1 m/S 742 mmHg 79%
15:00 +22°C° 1 mm 1 m/S 742 mmHg 80%
16:00 +22°C° 1 mm 1 m/S 742 mmHg 81%
17:00 +21°C° 1 mm 2 m/S 742 mmHg 83%
18:00 +20°C° 0.9 mm 2 m/S 742 mmHg 85%
19:00 +19°C° 0.9 mm 2 m/S 742 mmHg 88%
20:00 +18°C° 0.9 mm 2 m/S 742 mmHg 90%
21:00 +17°C° 0.4 mm 2 m/S 742 mmHg 91%
22:00 +17°C° 0.4 mm 2 m/S 742 mmHg 92%
23:00 +16°C° 0.4 mm 1 m/S 742 mmHg 93%

18 Juli, Samstag

Zeit Temperatur Niederschläge Wind Luftdruck Luftfeuchtigkeit
00:00 +16°C° 0.1 mm 1 m/S 742 mmHg 94%
01:00 +15°C° 0.1 mm 1 m/S 742 mmHg 95%
02:00 +15°C° 0.1 mm 1 m/S 742 mmHg 96%
03:00 +15°C° 0.1 mm 1 m/S 742 mmHg 96%
04:00 +15°C° 0.1 mm 1 m/S 742 mmHg 97%
05:00 +15°C° 0.1 mm 1 m/S 742 mmHg 97%
06:00 +16°C° 0 mm 1 m/S 743 mmHg 95%
07:00 +18°C° 0 mm 1 m/S 743 mmHg 93%
08:00 +19°C° 0 mm 1 m/S 743 mmHg 90%
09:00 +20°C° 0 mm 1 m/S 743 mmHg 85%
10:00 +21°C° 0 mm 1 m/S 743 mmHg 80%
11:00 +22°C° 0 mm 1 m/S 743 mmHg 75%
12:00 +22°C° 0 mm 1 m/S 743 mmHg 74%
13:00 +23°C° 0 mm 1 m/S 743 mmHg 72%
14:00 +23°C° 0 mm 1 m/S 743 mmHg 71%
15:00 +23°C° 0.7 mm 1 m/S 743 mmHg 71%
16:00 +23°C° 0.7 mm 1 m/S 743 mmHg 72%
17:00 +23°C° 0.7 mm 1 m/S 743 mmHg 73%
18:00 +22°C° 0.7 mm 1 m/S 743 mmHg 78%
19:00 +21°C° 0.7 mm 1 m/S 743 mmHg 83%
20:00 +19°C° 0.7 mm 2 m/S 743 mmHg 89%
21:00 +18°C° 0.6 mm 2 m/S 743 mmHg 91%
22:00 +18°C° 0.6 mm 2 m/S 743 mmHg 93%
23:00 +18°C° 0.6 mm 2 m/S 743 mmHg 95%

19 Juli, Sonntag

Zeit Temperatur Niederschläge Wind Luftdruck Luftfeuchtigkeit
00:00 +17°C° 0.4 mm 2 m/S 743 mmHg 96%
01:00 +17°C° 0.4 mm 2 m/S 743 mmHg 96%
02:00 +17°C° 0.4 mm 2 m/S 743 mmHg 97%
03:00 +17°C° 0.2 mm 2 m/S 743 mmHg 97%
04:00 +16°C° 0.2 mm 2 m/S 743 mmHg 97%
05:00 +16°C° 0.2 mm 2 m/S 743 mmHg 96%
06:00 +17°C° 0 mm 2 m/S 743 mmHg 95%
07:00 +17°C° 0 mm 3 m/S 743 mmHg 94%
08:00 +18°C° 0 mm 3 m/S 742 mmHg 93%
09:00 +19°C° 0.3 mm 3 m/S 743 mmHg 91%
10:00 +19°C° 0.3 mm 3 m/S 743 mmHg 88%
11:00 +20°C° 0.3 mm 3 m/S 743 mmHg 86%
12:00 +21°C° 0.6 mm 3 m/S 743 mmHg 83%
13:00 +22°C° 0.6 mm 3 m/S 742 mmHg 80%
14:00 +22°C° 0.6 mm 3 m/S 742 mmHg 77%
15:00 +22°C° 0.7 mm 3 m/S 742 mmHg 79%
16:00 +22°C° 0.7 mm 3 m/S 742 mmHg 81%
17:00 +21°C° 0.7 mm 3 m/S 741 mmHg 83%
18:00 +20°C° 0.3 mm 3 m/S 741 mmHg 87%
19:00 +19°C° 0.3 mm 2 m/S 741 mmHg 90%
20:00 +18°C° 0.3 mm 2 m/S 741 mmHg 93%
21:00 +18°C° 0.2 mm 2 m/S 741 mmHg 94%
22:00 +17°C° 0.2 mm 2 m/S 741 mmHg 95%
23:00 +17°C° 0.2 mm 2 m/S 741 mmHg 96%
Mehr zeigen